COSMOS 2251 DEB, 34579

Orbit data source: Space-Track

COSMOS 2251 DEB, 34579 is space debris in LEO originally from a launch on Wed, 16 Jun 1993 UTC launched from the Plesetsk Missile And Space Complex (PKMTR). The debris from Iridium 33, an American commercial communications satellite, has been tracked extensively since its accidental collision with the defunct Russian satellite Cosmos 2251 in 2009. This event, occurring at high speed in low Earth orbit (LEO), generated thousands of pieces of space debris, significantly increasing the risk of further collisions. The Iridium 33 debris cloud has impacted space traffic management and orbital debris mitigation strategies, making it a subject of ongoing study in space situational awareness.

Loading next visibility...
Identifier
34579, 1993-036VR
Orbit
LEO
Country
Flag of CISCIS
Related business
Manufacturer
Unknown
Mission
Spacecraft
Bus & Motor
Unknown
Mass
Unknown
Launch date (UTC)
1993-06-16 (33 years ago)
Launch vehicle
Unknown
Launch site
Plesetsk Missile And Space Complex (PKMTR)
Object type
Payload
Rocket body
Debris
Shape & HBR
Unknown shape, 0.1 m
Radar Cross Section
Small (<0.1 m²)

Expand to show TLE details & history
Last TLE update: 15 hours ago

TLE from 15 hours ago
0 COSMOS 2251 DEB
1 34579U 93036VR  26123.96676409  .00001049  00000-0  30207-3 0  9999
2 34579  74.0525 318.9954 0026231 353.4470 157.0584 14.45781981902292
Epoch: 2026-05-03T23:12Z
TLE epoch observation values (Epoch: 2026-05-03T23:12:08.417Z)
Latitude
28.19403°
Longitude
-79.66638°
Altitude
759.83 km
Speed
7.468 km/s
True Right ascension
08h 40m 55s
True Declination
28° 03' 04"
Sunlit
Object was in daylight at epoch
Visualization orbit readout
Latitude
Unknown
Longitude
Unknown
Altitude
Unknown
Speed
Unknown
Apparent Right ascension
Unknown
Apparent Declination
Unknown
Sunlit
N/A
Visualization observer readout
Local Sidereal Time
21:44:09
Azimuth
Unknown
Elevation
Unknown
Doppler factor
Unknown
Orbital elements
Apogee altitude
755.734 km
Perigee altitude
718.406 km
Semi-major axis
7,115.207 km
Eccentricity
0.00262
Inclination
74.0525°
RAAN
318.9954°
Arg. of periapsis
353.447°
True anomaly
157.17521°
Mean anomaly
157.0584°
Eccentric anomaly
157.11684°
Mean motion
3.61628 °/min
Orbital period
99.55 mins
BSTAR
0.00030207
Loading maneuver chart data...
Computing Atmospheric mass density...

Documentation

Showing up to 5 results
|